Year,Month,Day,Hour,Minute,Value (Times are PST for temperature in C)
2007,01,31,00,00,3.80
2007,01,31,00,01,3.80
2007,01,31,00,02,3.80
2007,01,31,00,03,3.90
2007,01,31,00,04,3.90
2007,01,31,00,05,4.00
2007,01,31,00,06,4.00
2007,01,31,00,07,4.00
2007,01,31,00,08,4.10
2007,01,31,00,09,4.10
2007,01,31,00,10,4.10
2007,01,31,00,11,4.10
2007,01,31,00,12,4.20
2007,01,31,00,13,4.20
2007,01,31,00,14,4.20
2007,01,31,00,15,4.20
2007,01,31,00,16,4.20
2007,01,31,00,17,4.20
2007,01,31,00,18,4.20
2007,01,31,00,19,4.20
2007,01,31,00,20,4.20
2007,01,31,00,21,4.20
2007,01,31,00,22,4.10
2007,01,31,00,23,4.10
2007,01,31,00,24,4.10
2007,01,31,00,25,4.10
2007,01,31,00,26,4.00
2007,01,31,00,27,4.00
2007,01,31,00,28,4.00
2007,01,31,00,29,4.00
2007,01,31,00,30,4.00
2007,01,31,00,31,4.00
2007,01,31,00,32,4.00
2007,01,31,00,33,4.00
2007,01,31,00,34,4.00
2007,01,31,00,35,4.10
2007,01,31,00,36,4.10
2007,01,31,00,37,4.10
2007,01,31,00,38,4.20
2007,01,31,00,39,4.20
2007,01,31,00,40,4.20
2007,01,31,00,41,4.10
2007,01,31,00,42,4.10
2007,01,31,00,43,4.10
2007,01,31,00,44,4.10
2007,01,31,00,45,4.10
2007,01,31,00,46,4.20
2007,01,31,00,47,4.20
2007,01,31,00,48,4.20
2007,01,31,00,49,4.20
2007,01,31,00,50,4.20
2007,01,31,00,51,4.30
2007,01,31,00,52,4.40
2007,01,31,00,53,4.40
2007,01,31,00,54,4.40
2007,01,31,00,55,4.40
2007,01,31,00,56,4.40
2007,01,31,00,57,4.40
2007,01,31,00,58,4.40
2007,01,31,00,59,4.40
2007,01,31,01,00,4.40
2007,01,31,01,01,4.40
2007,01,31,01,02,4.40
2007,01,31,01,03,4.40
2007,01,31,01,04,4.40
2007,01,31,01,05,4.40
2007,01,31,01,06,4.40
2007,01,31,01,07,4.40
2007,01,31,01,08,4.40
2007,01,31,01,09,4.40
2007,01,31,01,10,4.40
2007,01,31,01,11,4.40
2007,01,31,01,12,4.50
2007,01,31,01,13,4.40
2007,01,31,01,14,4.40
2007,01,31,01,15,4.40
2007,01,31,01,16,4.40
2007,01,31,01,17,4.40
2007,01,31,01,18,4.40
2007,01,31,01,19,4.40
2007,01,31,01,20,4.40
2007,01,31,01,21,4.40
2007,01,31,01,22,4.40
2007,01,31,01,23,4.40
2007,01,31,01,24,4.40
2007,01,31,01,25,4.40
2007,01,31,01,26,4.40
2007,01,31,01,27,4.40
2007,01,31,01,28,4.40
2007,01,31,01,29,4.40
2007,01,31,01,30,4.30
2007,01,31,01,31,4.30
2007,01,31,01,32,4.20
2007,01,31,01,33,4.20
2007,01,31,01,34,4.20
2007,01,31,01,35,4.20
2007,01,31,01,36,4.20
2007,01,31,01,37,4.20
2007,01,31,01,38,4.20
2007,01,31,01,39,4.10
2007,01,31,01,40,4.10
2007,01,31,01,41,4.10
2007,01,31,01,42,4.00
2007,01,31,01,43,4.00
2007,01,31,01,44,4.00
2007,01,31,01,45,4.00
2007,01,31,01,46,4.00
2007,01,31,01,47,3.90
2007,01,31,01,48,3.90
2007,01,31,01,49,3.90
2007,01,31,01,50,3.90
2007,01,31,01,51,3.90
2007,01,31,01,52,3.90
2007,01,31,01,53,3.90
2007,01,31,01,54,3.90
2007,01,31,01,55,3.90
2007,01,31,01,56,3.90
2007,01,31,01,57,3.90
2007,01,31,01,58,3.90
2007,01,31,01,59,3.90
2007,01,31,02,00,3.90
2007,01,31,02,01,3.90
2007,01,31,02,02,3.90
2007,01,31,02,03,3.90
2007,01,31,02,04,3.90
2007,01,31,02,05,3.90
2007,01,31,02,06,3.90
2007,01,31,02,07,3.90
2007,01,31,02,08,3.90
2007,01,31,02,09,3.90
2007,01,31,02,10,3.90
2007,01,31,02,11,3.90
2007,01,31,02,12,3.90
2007,01,31,02,13,3.90
2007,01,31,02,14,3.90
2007,01,31,02,15,3.90
2007,01,31,02,16,3.90
2007,01,31,02,17,3.90
2007,01,31,02,18,3.90
2007,01,31,02,19,4.00
2007,01,31,02,20,4.00
2007,01,31,02,21,4.00
2007,01,31,02,22,4.00
2007,01,31,02,23,4.00
2007,01,31,02,24,4.00
2007,01,31,02,25,4.10
2007,01,31,02,26,4.10
2007,01,31,02,27,4.10
2007,01,31,02,28,4.10
2007,01,31,02,29,4.10
2007,01,31,02,30,4.10
2007,01,31,02,31,4.10
2007,01,31,02,32,4.10
2007,01,31,02,33,4.10
2007,01,31,02,34,4.10
2007,01,31,02,35,4.10
2007,01,31,02,36,4.10
2007,01,31,02,37,4.10
2007,01,31,02,38,4.10
2007,01,31,02,39,4.10
2007,01,31,02,40,4.10
2007,01,31,02,41,4.00
2007,01,31,02,42,4.00
2007,01,31,02,43,4.00
2007,01,31,02,44,4.00
2007,01,31,02,45,4.00
2007,01,31,02,46,4.00
2007,01,31,02,47,4.00
2007,01,31,02,48,4.00
2007,01,31,02,49,4.00
2007,01,31,02,50,4.00
2007,01,31,02,51,4.00
2007,01,31,02,52,3.90
2007,01,31,02,53,3.90
2007,01,31,02,54,3.90
2007,01,31,02,55,3.90
2007,01,31,02,56,3.90
2007,01,31,02,57,4.00
2007,01,31,02,58,4.00
2007,01,31,02,59,4.00
2007,01,31,03,00,4.00
2007,01,31,03,01,4.00
2007,01,31,03,02,4.00
2007,01,31,03,03,4.10
2007,01,31,03,04,4.10
2007,01,31,03,05,4.10
2007,01,31,03,06,4.00
2007,01,31,03,07,4.00
2007,01,31,03,08,4.00
2007,01,31,03,09,4.00
2007,01,31,03,10,4.00
2007,01,31,03,11,4.00
2007,01,31,03,12,4.00
2007,01,31,03,13,4.00
2007,01,31,03,14,4.00
2007,01,31,03,15,4.00
2007,01,31,03,16,3.90
2007,01,31,03,17,3.90
2007,01,31,03,18,3.90
2007,01,31,03,19,3.90
2007,01,31,03,20,3.90
2007,01,31,03,21,3.90
2007,01,31,03,22,4.00
2007,01,31,03,23,4.00
2007,01,31,03,24,4.00
2007,01,31,03,25,4.00
2007,01,31,03,26,3.90
2007,01,31,03,27,3.90
2007,01,31,03,28,3.90
2007,01,31,03,29,3.90
2007,01,31,03,30,3.90
2007,01,31,03,31,3.80
2007,01,31,03,32,3.80
2007,01,31,03,33,3.80
2007,01,31,03,34,3.80
2007,01,31,03,35,3.80
2007,01,31,03,36,3.80
2007,01,31,03,37,3.80
2007,01,31,03,38,3.80
2007,01,31,03,39,3.80
2007,01,31,03,40,3.80
2007,01,31,03,41,3.80
2007,01,31,03,42,3.80
2007,01,31,03,43,3.80
2007,01,31,03,44,3.80
2007,01,31,03,45,3.70
2007,01,31,03,46,3.70
2007,01,31,03,47,3.70
2007,01,31,03,48,3.70
2007,01,31,03,49,3.70
2007,01,31,03,50,3.70
2007,01,31,03,51,3.60
2007,01,31,03,52,3.60
2007,01,31,03,53,3.60
2007,01,31,03,54,3.60
2007,01,31,03,55,3.60
2007,01,31,03,56,3.60
2007,01,31,03,57,3.50
2007,01,31,03,58,3.50
2007,01,31,03,59,3.50
2007,01,31,04,00,3.50
2007,01,31,04,01,3.50
2007,01,31,04,02,3.50
2007,01,31,04,03,3.40
2007,01,31,04,04,3.40
2007,01,31,04,05,3.40
2007,01,31,04,06,3.40
2007,01,31,04,07,3.40
2007,01,31,04,08,3.50
2007,01,31,04,09,3.50
2007,01,31,04,10,3.50
2007,01,31,04,11,3.50
2007,01,31,04,12,3.50
2007,01,31,04,13,3.50
2007,01,31,04,14,3.60
2007,01,31,04,15,3.60
2007,01,31,04,16,3.60
2007,01,31,04,17,3.60
2007,01,31,04,18,3.60
2007,01,31,04,19,3.60
2007,01,31,04,20,3.60
2007,01,31,04,21,3.60
2007,01,31,04,22,3.60
2007,01,31,04,23,3.60
2007,01,31,04,24,3.60
2007,01,31,04,25,3.60
2007,01,31,04,26,3.60
2007,01,31,04,27,3.60
2007,01,31,04,28,3.60
2007,01,31,04,29,3.60
2007,01,31,04,30,3.60
2007,01,31,04,31,3.60
2007,01,31,04,32,3.60
2007,01,31,04,33,3.60
2007,01,31,04,34,3.60
2007,01,31,04,35,3.60
2007,01,31,04,36,3.60
2007,01,31,04,37,3.60
2007,01,31,04,38,3.50
2007,01,31,04,39,3.50
2007,01,31,04,40,3.50
2007,01,31,04,41,3.50
2007,01,31,04,42,3.50
2007,01,31,04,43,3.50
2007,01,31,04,44,3.40
2007,01,31,04,45,3.40
2007,01,31,04,46,3.40
2007,01,31,04,47,3.40
2007,01,31,04,48,3.40
2007,01,31,04,49,3.30
2007,01,31,04,50,3.30
2007,01,31,04,51,3.30
2007,01,31,04,52,3.30
2007,01,31,04,53,3.30
2007,01,31,04,54,3.30
2007,01,31,04,55,3.30
2007,01,31,04,56,3.30
2007,01,31,04,57,3.30
2007,01,31,04,58,3.30
2007,01,31,04,59,3.30
2007,01,31,05,00,3.30
2007,01,31,05,01,3.30
2007,01,31,05,02,3.30
2007,01,31,05,03,3.30
2007,01,31,05,04,3.30
2007,01,31,05,05,3.30
2007,01,31,05,06,3.30
2007,01,31,05,07,3.30
2007,01,31,05,08,3.30
2007,01,31,05,09,3.30
2007,01,31,05,10,3.30
2007,01,31,05,11,3.20
2007,01,31,05,12,3.20
2007,01,31,05,13,3.20
2007,01,31,05,14,3.20
2007,01,31,05,15,3.20
2007,01,31,05,16,3.20
2007,01,31,05,17,3.20
2007,01,31,05,18,3.20
2007,01,31,05,19,3.10
2007,01,31,05,20,3.10
2007,01,31,05,21,3.10
2007,01,31,05,22,3.10
2007,01,31,05,23,3.10
2007,01,31,05,24,3.10
2007,01,31,05,25,3.10
2007,01,31,05,26,3.10
2007,01,31,05,27,3.00
2007,01,31,05,28,2.90
2007,01,31,05,29,2.90
2007,01,31,05,30,2.90
2007,01,31,05,31,2.90
2007,01,31,05,32,2.90
2007,01,31,05,33,2.90
2007,01,31,05,34,2.90
2007,01,31,05,35,2.90
2007,01,31,05,36,2.90
2007,01,31,05,37,2.90
2007,01,31,05,38,2.90
2007,01,31,05,39,2.90
2007,01,31,05,40,2.90
2007,01,31,05,41,2.90
2007,01,31,05,42,2.90
2007,01,31,05,43,2.90
2007,01,31,05,44,2.90
2007,01,31,05,45,2.90
2007,01,31,05,46,2.90
2007,01,31,05,47,2.90
2007,01,31,05,48,2.90
2007,01,31,05,49,2.90
2007,01,31,05,50,3.00
2007,01,31,05,51,3.10
2007,01,31,05,52,3.10
2007,01,31,05,53,3.10
2007,01,31,05,54,3.10
2007,01,31,05,55,3.00
2007,01,31,05,56,2.90
2007,01,31,05,57,2.90
2007,01,31,05,58,2.90
2007,01,31,05,59,2.90
2007,01,31,06,00,2.90
2007,01,31,06,01,2.90
2007,01,31,06,02,2.90
2007,01,31,06,03,2.90
2007,01,31,06,04,2.90
2007,01,31,06,05,2.90
2007,01,31,06,06,2.90
2007,01,31,06,07,2.90
2007,01,31,06,08,2.90
2007,01,31,06,09,2.90
2007,01,31,06,10,2.90
2007,01,31,06,11,2.90
2007,01,31,06,12,2.90
2007,01,31,06,13,2.90
2007,01,31,06,14,2.90
2007,01,31,06,15,2.90
2007,01,31,06,16,2.90
2007,01,31,06,17,3.00
2007,01,31,06,18,3.10
2007,01,31,06,19,3.10
2007,01,31,06,20,3.10
2007,01,31,06,21,3.10
2007,01,31,06,22,3.10
2007,01,31,06,23,3.10
2007,01,31,06,24,3.10
2007,01,31,06,25,3.10
2007,01,31,06,26,3.10
2007,01,31,06,27,3.10
2007,01,31,06,28,3.10
2007,01,31,06,29,3.10
2007,01,31,06,30,3.10
2007,01,31,06,31,3.10
2007,01,31,06,32,3.10
2007,01,31,06,33,3.10
2007,01,31,06,34,3.10
2007,01,31,06,35,3.10
2007,01,31,06,36,3.10
2007,01,31,06,37,3.00
2007,01,31,06,38,2.90
2007,01,31,06,39,2.90
2007,01,31,06,40,2.90
2007,01,31,06,41,3.00
2007,01,31,06,42,3.10
2007,01,31,06,43,3.10
2007,01,31,06,44,3.10
2007,01,31,06,45,3.10
2007,01,31,06,46,3.10
2007,01,31,06,47,3.10
2007,01,31,06,48,3.10
2007,01,31,06,49,3.10
2007,01,31,06,50,3.10
2007,01,31,06,51,3.10
2007,01,31,06,52,3.10
2007,01,31,06,53,3.10
2007,01,31,06,54,3.10
2007,01,31,06,55,3.10
2007,01,31,06,56,3.10
2007,01,31,06,57,3.20
2007,01,31,06,58,3.20
2007,01,31,06,59,3.20
2007,01,31,07,00,3.20
2007,01,31,07,01,3.20
2007,01,31,07,02,3.20
2007,01,31,07,03,3.30
2007,01,31,07,04,3.30
2007,01,31,07,05,3.30
2007,01,31,07,06,3.30
2007,01,31,07,07,3.30
2007,01,31,07,08,3.30
2007,01,31,07,09,3.30
2007,01,31,07,10,3.30
2007,01,31,07,11,3.30
2007,01,31,07,12,3.30
2007,01,31,07,13,3.30
2007,01,31,07,14,3.30
2007,01,31,07,15,3.30
2007,01,31,07,16,3.30
2007,01,31,07,17,3.30
2007,01,31,07,18,3.30
2007,01,31,07,19,3.30
2007,01,31,07,20,3.30
2007,01,31,07,21,3.30
2007,01,31,07,22,3.30
2007,01,31,07,23,3.30
2007,01,31,07,24,3.30
2007,01,31,07,25,3.30
2007,01,31,07,26,3.30
2007,01,31,07,27,3.30
2007,01,31,07,28,3.30
2007,01,31,07,29,3.30
2007,01,31,07,30,3.30
2007,01,31,07,31,3.30
2007,01,31,07,32,3.30
2007,01,31,07,33,3.30
2007,01,31,07,34,3.30
2007,01,31,07,35,3.30
2007,01,31,07,36,3.30
2007,01,31,07,37,3.30
2007,01,31,07,38,3.30
2007,01,31,07,39,3.30
2007,01,31,07,40,3.30
2007,01,31,07,41,3.30
2007,01,31,07,42,3.30
2007,01,31,07,43,3.30
2007,01,31,07,44,3.20
2007,01,31,07,45,3.20
2007,01,31,07,46,3.20
2007,01,31,07,47,3.20
2007,01,31,07,48,3.20
2007,01,31,07,49,3.10
2007,01,31,07,50,3.10
2007,01,31,07,51,3.10
2007,01,31,07,52,3.10
2007,01,31,07,53,3.10
2007,01,31,07,54,3.10
2007,01,31,07,55,3.10
2007,01,31,07,56,3.10
2007,01,31,07,57,3.10
2007,01,31,07,58,3.10
2007,01,31,07,59,3.10
2007,01,31,08,00,3.10
2007,01,31,08,01,3.10
2007,01,31,08,02,3.10
2007,01,31,08,03,3.10
2007,01,31,08,04,3.10
2007,01,31,08,05,3.10
2007,01,31,08,06,3.10
2007,01,31,08,07,3.10
2007,01,31,08,08,3.10
2007,01,31,08,09,3.10
2007,01,31,08,10,3.10
2007,01,31,08,11,3.10
2007,01,31,08,12,3.10
2007,01,31,08,13,3.10
2007,01,31,08,14,3.10
2007,01,31,08,15,3.10
2007,01,31,08,16,3.10
2007,01,31,08,17,3.10
2007,01,31,08,18,3.10
2007,01,31,08,19,3.10
2007,01,31,08,20,3.10
2007,01,31,08,21,3.10
2007,01,31,08,22,3.10
2007,01,31,08,23,3.10
2007,01,31,08,24,3.20
2007,01,31,08,25,3.20
2007,01,31,08,26,3.20
2007,01,31,08,27,3.20
2007,01,31,08,28,3.20
2007,01,31,08,29,3.20
2007,01,31,08,30,3.30
2007,01,31,08,31,3.30
2007,01,31,08,32,3.30
2007,01,31,08,33,3.30
2007,01,31,08,34,3.40
2007,01,31,08,35,3.40
2007,01,31,08,36,3.50
2007,01,31,08,37,3.50
2007,01,31,08,38,3.60
2007,01,31,08,39,3.60
2007,01,31,08,40,3.60
2007,01,31,08,41,3.70
2007,01,31,08,42,3.60
2007,01,31,08,43,3.70
2007,01,31,08,44,3.70
2007,01,31,08,45,3.80
2007,01,31,08,46,3.80
2007,01,31,08,47,3.80
2007,01,31,08,48,3.80
2007,01,31,08,49,3.90
2007,01,31,08,50,3.80
2007,01,31,08,51,3.80
2007,01,31,08,52,3.80
2007,01,31,08,53,3.80
2007,01,31,08,54,3.80
2007,01,31,08,55,3.80
2007,01,31,08,56,3.80
2007,01,31,08,57,3.80
2007,01,31,08,58,3.80
2007,01,31,08,59,3.80
2007,01,31,09,00,3.80
2007,01,31,09,01,3.80
2007,01,31,09,02,3.80
2007,01,31,09,03,3.80
2007,01,31,09,04,3.80
2007,01,31,09,05,3.80
2007,01,31,09,06,3.80
2007,01,31,09,07,3.80
2007,01,31,09,08,3.80
2007,01,31,09,09,3.80
2007,01,31,09,10,3.80
2007,01,31,09,11,3.80
2007,01,31,09,12,3.80
2007,01,31,09,13,3.80
2007,01,31,09,14,3.80
2007,01,31,09,15,3.80
2007,01,31,09,16,3.80
2007,01,31,09,17,3.80
2007,01,31,09,18,3.80
2007,01,31,09,19,3.80
2007,01,31,09,20,3.80
2007,01,31,09,21,3.80
2007,01,31,09,22,3.80
2007,01,31,09,23,3.80
2007,01,31,09,24,3.80
2007,01,31,09,25,3.80
2007,01,31,09,26,3.80
2007,01,31,09,27,3.80
2007,01,31,09,28,3.80
2007,01,31,09,29,3.80
2007,01,31,09,30,3.80
2007,01,31,09,31,3.80
2007,01,31,09,32,3.80
2007,01,31,09,33,3.80
2007,01,31,09,34,3.80
2007,01,31,09,35,3.90
2007,01,31,09,36,3.90
2007,01,31,09,37,3.90
2007,01,31,09,38,3.90
2007,01,31,09,39,4.00
2007,01,31,09,40,4.00
2007,01,31,09,41,4.00
2007,01,31,09,42,4.00
2007,01,31,09,43,3.90
2007,01,31,09,44,3.90
2007,01,31,09,45,3.90
2007,01,31,09,46,3.90
2007,01,31,09,47,3.90
2007,01,31,09,48,3.90
2007,01,31,09,49,3.90
2007,01,31,09,50,3.90
2007,01,31,09,51,3.90
2007,01,31,09,52,4.00
2007,01,31,09,53,4.00
2007,01,31,09,54,4.00
2007,01,31,09,55,4.00
2007,01,31,09,56,4.00
2007,01,31,09,57,4.00
2007,01,31,09,58,4.00
2007,01,31,09,59,4.10
2007,01,31,10,00,4.20
2007,01,31,10,01,4.20
2007,01,31,10,02,4.20
2007,01,31,10,03,4.20
2007,01,31,10,04,4.30
2007,01,31,10,05,4.30
2007,01,31,10,06,4.30
2007,01,31,10,07,4.20
2007,01,31,10,08,4.20
2007,01,31,10,09,4.30
2007,01,31,10,10,4.30
2007,01,31,10,11,4.30
2007,01,31,10,12,4.30
2007,01,31,10,13,4.30
2007,01,31,10,14,4.30
2007,01,31,10,15,4.30
2007,01,31,10,16,4.30
2007,01,31,10,17,4.30
2007,01,31,10,18,4.40
2007,01,31,10,19,4.40
2007,01,31,10,20,4.50
2007,01,31,10,21,4.60
2007,01,31,10,22,4.60
2007,01,31,10,23,4.60
2007,01,31,10,24,4.60
2007,01,31,10,25,4.60
2007,01,31,10,26,4.60
2007,01,31,10,27,4.60
2007,01,31,10,28,4.60
2007,01,31,10,29,4.60
2007,01,31,10,30,4.60
2007,01,31,10,31,4.60
2007,01,31,10,32,4.60
2007,01,31,10,33,4.60
2007,01,31,10,34,4.60
2007,01,31,10,35,4.60
2007,01,31,10,36,4.60
2007,01,31,10,37,4.60
2007,01,31,10,38,4.70
2007,01,31,10,39,4.70
2007,01,31,10,40,4.80
2007,01,31,10,41,4.90
2007,01,31,10,42,4.90
2007,01,31,10,43,4.90
2007,01,31,10,44,4.90
2007,01,31,10,45,4.90
2007,01,31,10,46,4.90
2007,01,31,10,47,4.90
2007,01,31,10,48,4.90
2007,01,31,10,49,4.90
2007,01,31,10,50,4.90
2007,01,31,10,51,4.90
2007,01,31,10,52,4.90
2007,01,31,10,53,4.90
2007,01,31,10,54,4.90
2007,01,31,10,55,4.90
2007,01,31,10,56,4.90
2007,01,31,10,57,5.00
2007,01,31,10,58,5.10
2007,01,31,10,59,5.10
2007,01,31,11,00,5.10
2007,01,31,11,01,5.10
2007,01,31,11,02,5.10
2007,01,31,11,03,5.10
2007,01,31,11,04,5.10
2007,01,31,11,05,5.10
2007,01,31,11,06,5.20
2007,01,31,11,07,5.20
2007,01,31,11,08,5.30
2007,01,31,11,09,5.30
2007,01,31,11,10,5.30
2007,01,31,11,11,5.30
2007,01,31,11,12,5.30
2007,01,31,11,13,5.30
2007,01,31,11,14,5.30
2007,01,31,11,15,5.30
2007,01,31,11,16,5.40
2007,01,31,11,17,5.50
2007,01,31,11,18,5.50
2007,01,31,11,19,5.50
2007,01,31,11,20,5.60
2007,01,31,11,21,5.50
2007,01,31,11,22,5.50
2007,01,31,11,23,5.60
2007,01,31,11,24,5.60
2007,01,31,11,25,5.60
2007,01,31,11,26,5.70
2007,01,31,11,27,5.70
2007,01,31,11,28,5.70
2007,01,31,11,29,5.70
2007,01,31,11,30,5.70
2007,01,31,11,31,5.70
2007,01,31,11,32,5.70
2007,01,31,11,33,5.70
2007,01,31,11,34,5.70
2007,01,31,11,35,5.70
2007,01,31,11,36,5.70
2007,01,31,11,37,5.70
2007,01,31,11,38,5.70
2007,01,31,11,39,5.60
2007,01,31,11,40,5.60
2007,01,31,11,41,5.70
2007,01,31,11,42,5.70
2007,01,31,11,43,5.70
2007,01,31,11,44,5.70
2007,01,31,11,45,5.70
2007,01,31,11,46,5.70
2007,01,31,11,47,5.70
2007,01,31,11,48,5.70
2007,01,31,11,49,5.70
2007,01,31,11,50,5.70
2007,01,31,11,51,5.70
2007,01,31,11,52,5.80
2007,01,31,11,53,5.90
2007,01,31,11,54,5.90
2007,01,31,11,55,5.90
2007,01,31,11,56,5.90
2007,01,31,11,57,6.00
2007,01,31,11,58,6.20
2007,01,31,11,59,6.30
2007,01,31,12,00,6.30
2007,01,31,12,01,6.30
2007,01,31,12,02,6.30
2007,01,31,12,03,6.20
2007,01,31,12,04,6.20
2007,01,31,12,05,6.20
2007,01,31,12,06,6.20
2007,01,31,12,07,6.20
2007,01,31,12,08,6.20
2007,01,31,12,09,6.20
2007,01,31,12,10,6.20
2007,01,31,12,11,6.20
2007,01,31,12,12,6.20
2007,01,31,12,13,6.20
2007,01,31,12,14,6.20
2007,01,31,12,15,6.20
2007,01,31,12,16,6.20
2007,01,31,12,17,6.20
2007,01,31,12,18,6.20
2007,01,31,12,19,6.30
2007,01,31,12,20,6.40
2007,01,31,12,21,6.40
2007,01,31,12,22,6.40
2007,01,31,12,23,6.50
2007,01,31,12,24,6.60
2007,01,31,12,25,6.50
2007,01,31,12,26,6.40
2007,01,31,12,27,6.40
2007,01,31,12,28,6.40
2007,01,31,12,29,6.40
2007,01,31,12,30,6.30
2007,01,31,12,31,6.30
2007,01,31,12,32,6.30
2007,01,31,12,33,6.20
2007,01,31,12,34,6.20
2007,01,31,12,35,6.20
2007,01,31,12,36,6.30
2007,01,31,12,37,6.30
2007,01,31,12,38,6.30
2007,01,31,12,39,6.40
2007,01,31,12,40,6.40
2007,01,31,12,41,6.40
2007,01,31,12,42,6.50
2007,01,31,12,43,6.60
2007,01,31,12,44,6.60
2007,01,31,12,45,6.60
2007,01,31,12,46,6.60
2007,01,31,12,47,6.60
2007,01,31,12,48,6.60
2007,01,31,12,49,6.60
2007,01,31,12,50,6.60
2007,01,31,12,51,6.70
2007,01,31,12,52,6.70
2007,01,31,12,53,6.80
2007,01,31,12,54,6.80
2007,01,31,12,55,6.80
2007,01,31,12,56,6.80
2007,01,31,12,57,6.80
2007,01,31,12,58,6.80
2007,01,31,12,59,6.80
2007,01,31,13,00,6.80
2007,01,31,13,01,6.80
2007,01,31,13,02,6.80
2007,01,31,13,03,6.80
2007,01,31,13,04,6.90
2007,01,31,13,05,6.90
2007,01,31,13,06,6.90
2007,01,31,13,07,6.90
2007,01,31,13,08,6.90
2007,01,31,13,09,6.90
2007,01,31,13,10,6.90
2007,01,31,13,11,6.90
2007,01,31,13,12,6.90
2007,01,31,13,13,6.90
2007,01,31,21,42,3.90
2007,01,31,21,43,3.90
2007,01,31,21,44,3.90
2007,01,31,21,45,3.90
2007,01,31,21,46,3.90
2007,01,31,21,47,3.80
2007,01,31,21,48,3.80
2007,01,31,21,49,3.80
2007,01,31,21,50,3.80
2007,01,31,21,51,3.80
2007,01,31,21,52,3.80
2007,01,31,21,53,3.80
2007,01,31,21,54,3.80
2007,01,31,21,55,3.80
2007,01,31,21,56,3.80
2007,01,31,21,57,3.80
2007,01,31,21,58,3.80
2007,01,31,21,59,3.80
2007,01,31,22,00,3.80
2007,01,31,22,01,3.80
2007,01,31,22,02,3.80
2007,01,31,22,03,3.80
2007,01,31,22,04,3.80
2007,01,31,22,05,3.80
2007,01,31,22,06,3.80
2007,01,31,22,07,3.80
2007,01,31,22,08,3.80
2007,01,31,22,09,3.70
2007,01,31,22,10,3.50
2007,01,31,22,11,3.40
2007,01,31,22,12,3.40
2007,01,31,22,13,3.40
2007,01,31,22,14,3.40
2007,01,31,22,15,3.30
2007,01,31,22,16,3.30
2007,01,31,22,17,3.30
2007,01,31,22,18,3.30
2007,01,31,22,19,3.30
2007,01,31,22,20,3.20
2007,01,31,22,21,3.20
2007,01,31,22,22,3.20
2007,01,31,22,23,3.20
2007,01,31,22,24,3.30
2007,01,31,22,25,3.30
2007,01,31,22,26,3.30
2007,01,31,22,27,3.30
2007,01,31,22,28,3.30
2007,01,31,22,29,3.30
2007,01,31,22,30,3.30
2007,01,31,22,31,3.30
2007,01,31,22,32,3.30
2007,01,31,22,33,3.20
2007,01,31,22,34,3.20
2007,01,31,22,35,3.20
2007,01,31,22,36,3.30
2007,01,31,22,37,3.30
2007,01,31,22,38,3.30
2007,01,31,22,39,3.30
2007,01,31,22,40,3.30
2007,01,31,22,41,3.30
2007,01,31,22,42,3.20
2007,01,31,22,43,3.20
2007,01,31,22,44,3.20
2007,01,31,22,45,3.10
2007,01,31,22,46,3.10
2007,01,31,22,47,3.10
2007,01,31,22,48,3.10
2007,01,31,22,49,3.10
2007,01,31,22,50,3.10
2007,01,31,22,51,3.20
2007,01,31,22,52,3.20
2007,01,31,22,53,3.20
2007,01,31,22,54,3.20
2007,01,31,22,55,3.30
2007,01,31,22,56,3.30
2007,01,31,22,57,3.30
2007,01,31,22,58,3.30
2007,01,31,22,59,3.30
2007,01,31,23,00,3.30
2007,01,31,23,01,3.30
2007,01,31,23,02,3.30
2007,01,31,23,03,3.30
2007,01,31,23,04,3.30
2007,01,31,23,05,3.30
2007,01,31,23,06,3.20
2007,01,31,23,07,3.20
2007,01,31,23,08,3.20
2007,01,31,23,09,3.20
2007,01,31,23,10,3.10
2007,01,31,23,11,3.10
2007,01,31,23,12,3.10
2007,01,31,23,13,3.00
2007,01,31,23,14,2.90
2007,01,31,23,15,2.90
2007,01,31,23,16,2.90
2007,01,31,23,17,2.90
2007,01,31,23,18,2.90
2007,01,31,23,19,2.90
2007,01,31,23,20,2.80
2007,01,31,23,21,2.80
2007,01,31,23,22,2.80
2007,01,31,23,23,2.90
2007,01,31,23,24,2.90
2007,01,31,23,25,2.90
2007,01,31,23,26,2.90
2007,01,31,23,27,2.90
2007,01,31,23,28,2.90
2007,01,31,23,29,2.90
2007,01,31,23,30,3.00
2007,01,31,23,31,3.10
2007,01,31,23,32,3.10
2007,01,31,23,33,3.10
2007,01,31,23,34,3.10
2007,01,31,23,35,3.10
2007,01,31,23,36,3.10
2007,01,31,23,37,3.10
2007,01,31,23,38,3.00
2007,01,31,23,39,2.90
2007,01,31,23,40,2.90
2007,01,31,23,41,2.90
2007,01,31,23,42,2.90
2007,01,31,23,43,2.90
2007,01,31,23,44,2.90
2007,01,31,23,45,2.80
2007,01,31,23,46,2.80
2007,01,31,23,47,2.80
2007,01,31,23,48,2.80
2007,01,31,23,49,2.80
2007,01,31,23,50,2.80
2007,01,31,23,51,2.80
2007,01,31,23,52,2.80
2007,01,31,23,53,2.90
2007,01,31,23,54,2.90
2007,01,31,23,55,2.90
2007,01,31,23,56,2.90
2007,01,31,23,57,2.90
2007,01,31,23,58,2.90
2007,01,31,23,59,2.90
